sat.trackr.live / text

‹ back to catalog

STARLINK-1316

NORAD 45415 · 2020-019BH

PAYLOAD ACTIVE UNKNOWN

§ Identity

Operator
Country
US
Launch date
2020-03-18
Launch site
AFETR
Launch vehicle
Mass (kg)
RCS (m²)

Purposes: comms

External: N2YO · Heavens-Above · Gunter

§ Orbital elements

Epoch: 2026-09-08T23:03:59.008032Z

Period
93.05 min
Inclination
53.1519°
Eccentricity
0.0003542
Mean motion
15.47523284 rev/d
Perigee alt
421.6 km
Apogee alt
426.4 km
Semi-major
6,802.1 km
B*
9.6449e-4
RAAN
346.7249°
Arg perigee
4.6349°
Mean anomaly
355.4692°
Rev number
35,821

§ Raw data

STARLINK-13161 45415U 20019BH  26251.96109963  .00050289  00000+0  96449-3 0  99982 45415  53.1519 346.7249 0003542   4.6349 355.4692 15.47523284358214

JSON: /api/v1/satellites/45415 · /tle

For live sub-satellite position, see the globe view (requires WebGL).

§ Visibility from observer

Set your observer location to see the next 7 days of passes ≥ 10°. The values pass through the URL so the page stays shareable.

No JS? Fill the form by hand. The geolocation button needs JavaScript.